Current Version              Previous Version:    01  02  03  04  05  06  07  08  09  10  11  12  13  14  15  16  17  18  19  20  21  22  23  24  25  26  27  28  29  30  
   31  32  33  34  35  36  37  38  39  40  41  42  43  44  45  46  47  48  49  50  51  52  53  54  55  56  57  58  59  60  

[Printable]
875
ASUS44 KFWD 191615
RWRTX
NORTH TEXAS HOURLY WEATHER ROUNDUP
NATIONAL WEATHER SERVICE FORT WORTH TX
1100 AM CDT FRI SEP 19 2014

NOTE: "FAIR" INDICATES FEW OR NO CLOUDS BELOW 12,000 FEET WITH NO
SIGNIFICANT WEATHER AND/OR OBSTRUCTIONS TO VISIBILITY.

TXZ118-119-191700-
DALLAS/FORT WORTH METROPLEX

CITY           SKY/WX    TMP DP  RH WIND       PRES   REMARKS
DFW AIRPORT    PTSUNNY   78  69  73 SE8       29.98R
DALLAS LOVE    PTSUNNY   78  69  73 E13G18    29.98S
FTW MEACHAM    CLOUDY    76  69  79 E8        29.98R
DAL-EXECUTIVE  CLOUDY    77  70  79 SE6       29.99R
FTW-ALLIANCE   PTSUNNY   76  69  79 SE10      29.98R
FTW-NAS-JRB    CLOUDY    79  68  69 SE6       30.02S
FTW-SPINKS     CLOUDY    75  70  83 E6        30.00R
ARLINGTON      CLOUDY    75  69  81 SE8       29.99R
GRAND PRAIRIE  CLOUDY    73  70  88 MISG      30.00R
ADDISON        PTSUNNY   79  68  69 SE12G17   29.99
MESQUITE       PTSUNNY   79  70  73 E6        29.99R
LANCASTER      CLOUDY    73  68  83 E5        30.00R
$$

TXZ091>094-102>105-117-120-121-131>134-191700-
NORTH CENTRAL TEXAS

CITY           SKY/WX    TMP DP  RH WIND       PRES   REMARKS
SHRMAN/DENISON PTSUNNY   78  69  73 E6        30.01S
GAINESVILLE    FAIR      76  68  76 SE8       30.02S
BOWIE          FAIR      78  68  70 SE6       30.00S
BRIDGEPORT     CLOUDY    76  65  70 SE5       30.00S
DECATUR        PTSUNNY   78  66  66 SE7       30.00S
DENTON         CLOUDY    78  69  73 SE9       29.99R
MCKINNEY       PTSUNNY   78  69  73 SE8       29.99S
GREENVILLE     FAIR      81  68  65 SE8       29.99F
ROCKWALL       FAIR      77  71  80 E7        29.98S
TERRELL        PTSUNNY   79  70  74 E7        29.99S
WAXAHACHIE     CLOUDY    73  71  93 E3        30.00R
CLEBURNE       CLOUDY    75  72  88 E9        30.00S
GRANBURY       CLOUDY    74  69  84 E6        30.00R
$$

TXZ083>090-098>101-113>116-127>130-139>142-154-155-191700-
WESTERN NORTH TEXAS

CITY           SKY/WX    TMP DP  RH WIND       PRES   REMARKS
WICHITA FALLS  FAIR      78  69  73 E10       29.98S
WF-KICKAPOO    FAIR      79  66  63 E9        30.00S
VERNON         FAIR      78  70  76 SE3       30.00R
ABILENE        PTSUNNY   75  67  76 SE6       30.01R
ABILENE-DYESS  CLOUDY    74  62  66 E5        30.00R
BRECKENRIDGE   CLOUDY    77  67  71 SE7       29.99R
GRAHAM         FAIR      80  65  61 NE6       29.98R
MINERAL WELLS  CLOUDY    77  67  71 SE10      29.98R
STEPHENVILLE   CLOUDY    75  66  73 E5        30.02R
COMANCHE       CLOUDY    74  69  82 E6        30.00R
BROWNWOOD      CLOUDY    75  70  83 E7        29.99R
COLEMAN        CLOUDY    74  68  83 E7        30.00R
$$

TXZ143>147-156>162-174-175-191700-
CENTRAL TEXAS

CITY           SKY/WX    TMP DP  RH WIND       PRES   REMARKS
WACO           FOG       74  72  93 E5        29.97R VSB 1
WACO-TSTC      RAIN      73  73 100 E5        29.97S
WACO-MCGREGOR  CLOUDY    73  70  88 E6        29.99R
HILLSBORO      CLOUDY    74  71  88 E5        29.99R FOG
CORSICANA      CLOUDY    79  71  76 E6        29.98R
MEXIA          PTSUNNY   77  73  85 E7        29.97R
HEARNE         CLOUDY    76  73  88 CALM      29.96S
CAMERON        CLOUDY    77  74  88 SE7       29.96R
TEMPLE         CLOUDY    73  70  88 E5        29.96S
KILLEEN        CLOUDY    75  72  88 NE9       29.98R
KILLEEN-SKYLRK CLOUDY    73  68  83 NE9       29.97S
FORT HOOD      CLOUDY    76  72  87 NE5       29.97S
GATESVILLE     PTSUNNY   73  72  94 E3        30.00R FOG
HAMILTON       CLOUDY    74  73  98 E7        30.00R
LAMPASAS       CLOUDY    74  73  96 E6        29.97S
$$

TXZ095>097-106>112-122>126-135>138-148>153-164>167-191700-
EAST TEXAS

CITY           SKY/WX    TMP DP  RH WIND       PRES   REMARKS
PARIS          CLOUDY    77  64  65 E8        30.02R
SULPHUR SPRNGS PTSUNNY   76  71  83 NE3       30.02S
MOUNT PLEASANT CLOUDY    74  72  91 NE3       30.02R
GILMER         CLOUDY    75  75 100 NE6       30.02R FOG
MINEOLA        FAIR      81  72  74 SE3       30.00S
TYLER          FAIR      81  69  67 E5        29.99R
LONGVIEW       FAIR      81  71  71 E8        29.98R
MARSHALL       CLOUDY    79  74  85 CALM      30.01R
ATHENS         CLOUDY    81  68  65 SE8       29.97S
PALESTINE      CLOUDY    78  72  82 E9        29.99R
JACKSONVILLE   FAIR      81  69  68 E7        30.01S
HENDERSON      FAIR      80  70  69 NE3       29.99S
NACOGDOCHES    FAIR      79  72  78 E8        29.98S
LUFKIN         CLOUDY    81  72  74 E8        29.98R
$$

SUPPLEMENTAL OBSERVATIONS (CENTRAL)

CITY           SKY/WX    TMP DP  RH WIND       PRES   REMARKS
LAKE TEXOMA      N/A     73  68  83 SE6         N/A
PAT MAYSE LAKE   N/A     73  68  83 E3          N/A
PALESTINE        N/A     79  72  78 SE3         N/A
LAKE LIMESTONE   N/A     79  72  78 E7          N/A
MCGREGOR         N/A     73  72  94 E5          N/A
TEMPLE           N/A     75  73  94 E7          N/A
$$

SUPPLEMENTAL OBSERVATIONS (WEST)

CITY           SKY/WX    TMP DP  RH WIND       PRES   REMARKS
MILLERS CREEK    N/A     79  73  83 SE6         N/A
POSSUM KINGDOM   N/A     79  66  65 E7          N/A
GRANBURY         N/A     73  68  83 E6          N/A
COMANCHE         N/A     75  73  94 E8          N/A
HAMBY            N/A     75  68  78 E5          N/A
IVIE RESERVOIR   N/A     72  68  88 CALM        N/A
COLORADO BEND    N/A     73  70  88 E8          N/A
$$

SUPPLEMENTAL OBSERVATIONS (EAST)

CITY           SKY/WX    TMP DP  RH WIND       PRES   REMARKS
CLARKSVILLE      N/A     72  66  83 E6          N/A
TEXARKANA        N/A     72  68  88 NE3         N/A
LINDEN           N/A     73  70  88 E3          N/A
CADDO LAKE       N/A     77  73  88 NE3         N/A
GILMER           N/A     75  70  83 NE2         N/A
HENDERSON        N/A     82  72  69 E7          N/A
LUFKIN           N/A     79  72  78 MISG        N/A
N SABINE NF      N/A     84  73  70 MISG        N/A  HX  91
S SABINE NF      N/A     82  72  69 SE3         N/A
$$

SUPPLEMENTAL OBSERVATIONS ARE A COLLECTION OF AUTOMATED INSTRUMENTS
THAT ARE MAINTAINED BY A VARIETY OF FEDERAL AND STATE AGENCIES.
CERTAIN ELEMENTS...SUCH AS HUMIDITY VALUES AND SUSTAINED WIND
SPEEDS...MAY BE APPROXIMATED.